Regional Weather Roundup
Issued by NWS Little Rock, AR

Home | Current Version | Previous Version | Graphics & Text | Print | Product List | Glossary On
Versions: 1 2 3 4 5 6 7 8 9 10 11 12 13 14 15 16 17 18 19 20 21 22 23 24 25 26 27 28 29 30 31 32 33 34 35 36 37 38 39 40 41 42 43 44 45 46 47 48 49 50
000
ASUS44 KLZK 290905
RWRLZK

WEATHER ROUNDUP FOR ARKANSAS
NATIONAL WEATHER SERVICE LITTLE ROCK AR
400 AM CDT SUN MAR 29 2015

NOTE: "FAIR" INDICATES FEW OR NO CLOUDS BELOW 12,000 FEET WITH NO
SIGNIFICANT WEATHER AND/OR OBSTRUCTIONS TO VISIBILITY.

ARZ001-003-010-029-291000-
NORTHWEST ARKANSAS

CITY           SKY/WX    TMP DP  RH WIND       PRES   REMARKS
FAYETTEVILLE   CLEAR     42  35  76 S7        30.07F
FORT SMITH     CLEAR     39  33  79 E15       30.15F
HARRISON       CLEAR     34  30  85 SE13      30.13F WCI  25
BENTONVILLE    CLEAR     41  30  65 SE13      30.07F
ROGERS         CLEAR     40  33  76 SE9       30.07F
SILOAM SPGS    CLEAR     41  30  65 SE8       30.07F
HIGHFILL       CLEAR     41  34  76 SE7       30.06F
$$

ARZ004-005-016-291000-
NORTH CENTRAL ARKANSAS

CITY           SKY/WX    TMP DP  RH WIND       PRES   REMARKS
BATESVILLE     CLEAR     32  28  86 SE5       30.24F WCI  27
FLIPPIN        CLEAR     30  25  80 CALM      30.18F
MTN HOME       CLEAR     32  29  88 SE6       30.17F WCI  26
$$

ARZ040-041-291000-
WEST CENTRAL ARKANSAS

CITY           SKY/WX    TMP DP  RH WIND       PRES   REMARKS
MENA           CLEAR     41  34  75 E5        30.16F
MOUNT IDA      FAIR      40  32  73 CALM      30.16F
$$

ARZ009-017-025-026-028-291000-
NORTHEAST ARKANSAS

CITY           SKY/WX    TMP DP  RH WIND       PRES   REMARKS
CORNING          N/A     32  32 100 E5        30.24F WCI  27
JONESBORO      CLEAR     32  29  88 CALM      30.26F
NEWPORT        CLEAR     35  32  89 SE6       30.26F WCI  30
BLYTHEVILLE    CLEAR     33  31  92 E8        30.27F WCI  26
$$

ARZ022-023-033-042-044-291000-
CENTRAL ARKANSAS

CITY           SKY/WX    TMP DP  RH WIND       PRES   REMARKS
LITTLE ROCK    CLEAR     39  33  79 E6        30.24F
N LITTLE ROCK    N/A     37  35  96 E5        30.24F
JACKSONVILLE   CLEAR     34  32  92 E1        30.23F
SEARCY         CLEAR     31  30  96 CALM      30.27F
HOT SPRINGS    CLEAR     39  32  76 E7        30.20F
RUSSELLVILLE   CLEAR     37  33  85 E5        30.22F
CLINTON        FAIR      32  30  93 CALM      30.26S FOG
$$

ARZ036-291000-
EAST ARKANSAS

CITY           SKY/WX    TMP DP  RH WIND       PRES   REMARKS
WEST MEMPHIS   CLEAR     34  29  82 SE5       30.26F WCI  30
$$

ARZ050-053-066-070-073-291000-
SOUTHWEST ARKANSAS

CITY           SKY/WX    TMP DP  RH WIND       PRES   REMARKS
ARKADELPHIA    FAIR      39  36  89 NE6       30.22F
CAMDEN         CLEAR     37  32  81 CALM      30.20F
TEXARKANA      CLEAR     43  35  73 E7        30.15F
EL DORADO      CLEAR     42  35  76 E6        30.18F
DE QUEEN       CLEAR     42  34  73 E9        30.15F
$$

ARZ056-057-069-291000-
SOUTHEAST ARKANSAS

CITY           SKY/WX    TMP DP  RH WIND       PRES   REMARKS
PINE BLUFF     MOCLDY    39  35  86 E8        30.23F
STUTTGART      CLEAR     39  30  70 SE8       30.24F
MONTICELLO     PTCLDY    42  33  70 E7        30.21F

$$





USA.gov is the U.S. government's official web portal to all federal, state and local government web resources and services.